AAL440 KPHX-KLAS

Flight info

Callsign AAL440
Flight time N/A
Altitude 28000
Route ZEPER2 RRSTA ELLDA RKSTR4
Aircraft A321/M-SDE3FGHIRWY/LB1

Departure

Time 2026-05-05 20:02
Airport Phoenix Sky Harbor International Airport (KPHX)

Arrival

Time N/A
Airport Harry Reid International Airport (KLAS)
Time Latitude Longitude Altitude Speed Heading
2026-05-05 19:44 33.43719 -112.00126 1131 ft 0 kts 270°
2026-05-05 19:53 33.43718 -112.00106 1136 ft 4 kts 290°
2026-05-05 19:54 33.43704 -112.00082 1135 ft 4 kts 337°
2026-05-05 19:54 33.43690 -112.00078 1132 ft 0 kts
2026-05-05 19:56 33.43735 -112.00077 1133 ft 13 kts
2026-05-05 19:56 33.43821 -112.00077 1134 ft 12 kts 360°
2026-05-05 19:56 33.43894 -112.00062 1131 ft 10 kts 40°
2026-05-05 19:57 33.43905 -111.99994 1132 ft 8 kts 91°
2026-05-05 19:57 33.43904 -111.99951 1131 ft 7 kts 91°
2026-05-05 19:57 33.43905 -111.99832 1131 ft 14 kts 91°
2026-05-05 19:57 33.43909 -111.99720 1136 ft 13 kts 85°
2026-05-05 19:58 33.43913 -111.99623 1135 ft 11 kts 90°
2026-05-05 19:58 33.43910 -111.99538 1135 ft 10 kts 97°
2026-05-05 19:58 33.43907 -111.99462 1132 ft 9 kts 90°
2026-05-05 19:58 33.43906 -111.99396 1132 ft 8 kts 92°
2026-05-05 19:59 33.43904 -111.99336 1132 ft 7 kts 91°
2026-05-05 19:59 33.43904 -111.99285 1132 ft 6 kts 89°
2026-05-05 19:59 33.43915 -111.99243 1136 ft 5 kts 53°
2026-05-05 19:59 33.43935 -111.99226 1135 ft 2 kts 21°
2026-05-05 20:00 33.43953 -111.99219 1137 ft 6 kts 23°
2026-05-05 20:00 33.43973 -111.99149 1135 ft 15 kts 91°
2026-05-05 20:00 33.43972 -111.99073 1132 ft 0 kts 89°
2026-05-05 20:01 33.43975 -111.99060 1133 ft 7 kts 74°
2026-05-05 20:01 33.44037 -111.99088 1133 ft 14 kts 290°
2026-05-05 20:01 33.44080 -111.99237 1141 ft 24 kts 271°
2026-05-05 20:01 33.44083 -111.99610 1138 ft 75 kts 269°
2026-05-05 20:02 33.44084 -112.00472 1130 ft 129 kts 270°
2026-05-05 20:02 33.44085 -112.01701 1138 ft 167 kts 270°
2026-05-05 20:02 33.44089 -112.03123 1590 ft 172 kts 269°
2026-05-05 20:02 33.44117 -112.04573 2131 ft 175 kts 269°
2026-05-05 20:03 33.44156 -112.06008 2676 ft 173 kts 269°
2026-05-05 20:03 33.44195 -112.07493 3023 ft 187 kts 268°
2026-05-05 20:03 33.44231 -112.09149 3193 ft 211 kts 269°
2026-05-05 20:03 33.44269 -112.10986 3484 ft 228 kts 269°
2026-05-05 20:04 33.44315 -112.12909 4150 ft 232 kts 270°
2026-05-05 20:04 33.44366 -112.14844 4863 ft 235 kts 269°
2026-05-05 20:04 33.44437 -112.16802 5661 ft 236 kts 274°
2026-05-05 20:04 33.45084 -112.18631 6351 ft 250 kts 309°
2026-05-05 20:05 33.46580 -112.19701 6965 ft 263 kts 346°
2026-05-05 20:05 33.48427 -112.19919 7648 ft 269 kts 356°
2026-05-05 20:05 33.50322 -112.19897 8366 ft 274 kts 360°
2026-05-05 20:05 33.52232 -112.19801 9118 ft 277 kts
2026-05-05 20:06 33.54195 -112.19748 9668 ft 290 kts 357°
2026-05-05 20:06 33.56233 -112.19830 10084 ft 302 kts 354°
2026-05-05 20:06 33.58411 -112.19999 10280 ft 323 kts 353°
2026-05-05 20:06 33.60733 -112.20220 10405 ft 345 kts 353°
2026-05-05 20:07 33.63134 -112.20602 10734 ft 355 kts 343°
2026-05-05 20:07 33.65534 -112.21409 11289 ft 359 kts 341°
2026-05-05 20:07 33.67967 -112.22215 11905 ft 363 kts 341°
2026-05-05 20:07 33.70420 -112.23008 12511 ft 367 kts 342°
2026-05-05 20:08 33.72875 -112.23789 13131 ft 371 kts 341°
2026-05-05 20:08 33.75396 -112.24593 13704 ft 374 kts 341°
2026-05-05 20:08 33.77902 -112.25394 14227 ft 378 kts 341°
2026-05-05 20:08 33.80462 -112.26214 14784 ft 381 kts 341°
2026-05-05 20:09 33.83043 -112.27047 15337 ft 384 kts 341°
2026-05-05 20:09 33.85632 -112.27885 15872 ft 386 kts 341°
2026-05-05 20:09 33.88223 -112.28720 16386 ft 389 kts 341°
2026-05-05 20:09 33.90859 -112.29569 16903 ft 392 kts 341°
2026-05-05 20:10 33.93488 -112.30421 17417 ft 395 kts 341°
2026-05-05 20:10 33.96154 -112.31286 17923 ft 398 kts 341°
2026-05-05 20:10 33.98842 -112.32158 18392 ft 400 kts 341°
2026-05-05 20:10 34.01497 -112.33205 18792 ft 398 kts 332°
2026-05-05 20:11 34.03916 -112.34753 19188 ft 395 kts 321°
2026-05-05 20:11 34.06087 -112.36771 19567 ft 392 kts 314°
2026-05-05 20:11 34.08167 -112.38885 19990 ft 394 kts 314°
2026-05-05 20:11 34.10282 -112.41017 20425 ft 396 kts 314°
2026-05-05 20:12 34.12386 -112.43125 20867 ft 397 kts 313°
2026-05-05 20:12 34.14525 -112.45269 21238 ft 400 kts 314°
2026-05-05 20:12 34.16681 -112.47434 21648 ft 402 kts 315°
2026-05-05 20:12 34.18113 -112.48873 21922 ft 404 kts 315°
2026-05-05 20:13 34.20991 -112.51769 22486 ft 406 kts 315°
2026-05-05 20:13 34.23173 -112.53968 22898 ft 408 kts 315°
2026-05-05 20:13 34.24623 -112.55433 23189 ft 409 kts 315°
2026-05-05 20:13 34.27541 -112.58381 23664 ft 412 kts 314°
2026-05-05 20:14 34.28997 -112.59853 23900 ft 413 kts 314°
2026-05-05 20:14 34.31934 -112.62823 24344 ft 415 kts 313°
2026-05-05 20:14 34.33430 -112.64339 24584 ft 416 kts 315°
2026-05-05 20:14 34.35661 -112.66604 24855 ft 420 kts 315°
2026-05-05 20:15 34.37887 -112.68867 25138 ft 422 kts 314°
2026-05-05 20:15 34.40144 -112.71160 25453 ft 424 kts 314°
2026-05-05 20:15 34.42426 -112.73473 25765 ft 426 kts 314°
2026-05-05 20:15 34.44710 -112.75786 26073 ft 428 kts 313°
2026-05-05 20:16 34.46984 -112.78092 26390 ft 430 kts 313°
2026-05-05 20:16 34.49290 -112.80436 26705 ft 431 kts 313°
2026-05-05 20:16 34.51576 -112.82763 26978 ft 433 kts 312°
2026-05-05 20:16 34.53884 -112.85121 27274 ft 435 kts 313°
2026-05-05 20:17 34.56212 -112.87502 27519 ft 438 kts 313°
2026-05-05 20:17 34.58553 -112.89897 27764 ft 440 kts 313°
2026-05-05 20:17 34.60893 -112.92283 27829 ft 433 kts 313°
2026-05-05 20:17 34.63165 -112.94590 27847 ft 428 kts 313°
2026-05-05 20:18 34.65442 -112.96904 27827 ft 426 kts 312°
2026-05-05 20:18 34.67714 -112.99223 27837 ft 425 kts 312°
2026-05-05 20:18 34.69980 -113.01551 27842 ft 425 kts 312°
2026-05-05 20:18 34.72235 -113.03875 27836 ft 425 kts 312°
2026-05-05 20:19 34.74467 -113.06173 27845 ft 426 kts 314°
2026-05-05 20:19 34.76654 -113.08605 27839 ft 424 kts 309°
2026-05-05 20:19 34.78748 -113.11155 27861 ft 423 kts 308°
2026-05-05 20:19 34.80764 -113.13709 27855 ft 423 kts 307°
2026-05-05 20:20 34.82777 -113.16318 27855 ft 422 kts 307°
2026-05-05 20:20 34.84790 -113.18943 27842 ft 422 kts 307°
2026-05-05 20:20 34.86805 -113.21558 27840 ft 422 kts 307°
2026-05-05 20:20 34.88828 -113.24163 27847 ft 422 kts 308°
2026-05-05 20:21 34.90858 -113.26756 27845 ft 422 kts 308°
2026-05-05 20:21 34.92889 -113.29341 27850 ft 423 kts 309°
2026-05-05 20:21 34.94900 -113.31896 27841 ft 423 kts 309°
2026-05-05 20:21 34.96948 -113.34505 27832 ft 424 kts 309°
2026-05-05 20:22 34.99000 -113.37091 27831 ft 425 kts 312°
2026-05-05 20:22 35.01259 -113.39442 27824 ft 428 kts 316°
2026-05-05 20:22 35.03552 -113.41737 27824 ft 428 kts 316°
2026-05-05 20:22 35.05833 -113.44027 27841 ft 428 kts 316°
2026-05-05 20:23 35.08144 -113.46352 27842 ft 428 kts 316°
2026-05-05 20:23 35.10444 -113.48670 27843 ft 428 kts 316°
2026-05-05 20:23 35.12747 -113.50999 27846 ft 428 kts 317°
2026-05-05 20:23 35.15013 -113.53292 27841 ft 428 kts 317°
2026-05-05 20:24 35.17314 -113.55617 27855 ft 428 kts 317°
2026-05-05 20:24 35.19613 -113.57937 27867 ft 429 kts 317°
2026-05-05 20:24 35.21915 -113.60259 27795 ft 427 kts 317°
2026-05-05 20:24 35.24209 -113.62575 27101 ft 425 kts 317°
2026-05-05 20:25 35.26474 -113.64865 26614 ft 418 kts 318°
2026-05-05 20:25 35.28672 -113.67093 26125 ft 412 kts 318°
2026-05-05 20:25 35.30869 -113.69317 25641 ft 406 kts 318°
2026-05-05 20:25 35.33032 -113.71512 25189 ft 400 kts 319°
2026-05-05 20:26 35.35171 -113.73682 24730 ft 396 kts 319°
2026-05-05 20:26 35.37288 -113.75837 24287 ft 393 kts 320°
2026-05-05 20:26 35.39357 -113.77946 23823 ft 389 kts 320°
2026-05-05 20:26 35.41431 -113.80060 23355 ft 386 kts 320°
2026-05-05 20:27 35.43493 -113.82161 22882 ft 384 kts 320°
2026-05-05 20:27 35.45543 -113.84253 22432 ft 382 kts 320°
2026-05-05 20:27 35.47594 -113.86345 21980 ft 381 kts 320°
2026-05-05 20:27 35.49635 -113.88421 21529 ft 379 kts 320°
2026-05-05 20:28 35.51659 -113.90483 21088 ft 378 kts 320°
2026-05-05 20:28 35.53659 -113.92530 20644 ft 376 kts 320°
2026-05-05 20:28 35.55669 -113.94590 20205 ft 374 kts 320°
2026-05-05 20:28 35.57667 -113.96637 19745 ft 372 kts 320°
2026-05-05 20:29 35.59660 -113.98677 19307 ft 372 kts 319°
2026-05-05 20:29 35.61622 -114.00689 18878 ft 369 kts 319°
2026-05-05 20:29 35.63592 -114.02708 18452 ft 368 kts 319°
2026-05-05 20:29 35.65555 -114.04720 18014 ft 367 kts 319°
2026-05-05 20:30 35.67504 -114.06720 17564 ft 363 kts 319°
2026-05-05 20:30 35.69438 -114.08707 17149 ft 359 kts 320°
2026-05-05 20:30 35.71357 -114.10681 16743 ft 355 kts 320°
2026-05-05 20:30 35.73211 -114.12589 16597 ft 341 kts 320°
2026-05-05 20:31 35.74968 -114.14448 16399 ft 330 kts 315°
2026-05-05 20:31 35.76403 -114.16614 16101 ft 323 kts 301°
2026-05-05 20:31 35.77494 -114.19024 15842 ft 321 kts 297°
2026-05-05 20:31 35.78560 -114.21444 15628 ft 320 kts 298°
2026-05-05 20:32 35.79609 -114.23817 15352 ft 319 kts 298°
2026-05-05 20:32 35.80670 -114.26217 15011 ft 317 kts 298°
2026-05-05 20:32 35.81723 -114.28599 14678 ft 316 kts 298°
2026-05-05 20:32 35.82777 -114.30983 14334 ft 315 kts 298°
2026-05-05 20:33 35.83816 -114.33342 13987 ft 308 kts 297°
2026-05-05 20:33 35.84784 -114.35591 13588 ft 293 kts 296°
2026-05-05 20:33 35.85696 -114.37785 13124 ft 282 kts 296°
2026-05-05 20:33 35.86547 -114.39927 12655 ft 273 kts 295°
2026-05-05 20:34 35.87330 -114.42015 12204 ft 264 kts 293°
2026-05-05 20:34 35.88050 -114.44059 11770 ft 255 kts 292°
2026-05-05 20:34 35.88708 -114.46059 11347 ft 248 kts 290°
2026-05-05 20:34 35.89303 -114.48020 10919 ft 240 kts 288°
2026-05-05 20:35 35.89834 -114.49927 10530 ft 234 kts 287°
2026-05-05 20:35 35.90326 -114.51834 10163 ft 233 kts 286°
2026-05-05 20:35 35.90775 -114.53746 9828 ft 231 kts 284°
2026-05-05 20:35 35.91281 -114.55549 9717 ft 216 kts 290°
2026-05-05 20:36 35.91846 -114.57217 9490 ft 206 kts 288°
2026-05-05 20:36 35.92278 -114.58888 9077 ft 203 kts 284°
2026-05-05 20:36 35.92637 -114.60571 8682 ft 209 kts 288°
2026-05-05 20:36 35.93352 -114.62360 8485 ft 259 kts 296°
2026-05-05 20:37 35.94232 -114.64553 8382 ft 312 kts 294°